Regional Weather Roundup
Issued by NWS

Home | Current Version | Previous Version | Graphics & Text | Print | Product List | Glossary On
Versions: 1 2 3 4 5 6 7 8 9 10 11 12 13 14 15 16 17 18 19 20 21 22 23 24 25 26 27 28 29 30 31 32 33 34 35 36 37 38 39 40 41 42 43 44 45 46 47 48 49 50
000
ASUS45 KBOU 150107
RWRCO

WEATHER ROUNDUP FOR COLORADO
NATIONAL WEATHER SERVICE DENVER/BOULDER CO
700 PM MDT SUN SEP 14 2014

NOTE: "FAIR" INDICATES FEW OR NO CLOUDS BELOW 12000 FEET WITH NO
SIGNIFICANT WEATHER AND/OR OBSTRUCTIONS TO VISIBILITY.

COZ001>005-013-030-031-150200-
...NORTHWEST COLORADO...

CITY           SKY/WX    TMP DP  RH WIND       PRES   REMARKS
CRAIG          MOCLDY    68  36  30 W8        30.14R
HAYDEN         MOCLDY    70  30  23 W6        30.16R
MEEKER         PTCLDY    75  36  24 NW3       30.15F
MOUNT WERNER   NOT AVBL
STEAMBOAT SPGS MOCLDY    70  32  25 W10       30.18S
WALDEN         MOCLDY    61  30  31 W7        30.27S
$$

COZ006>008-011-150200-
...WEST CENTRAL VALLEYS...

CITY           SKY/WX    TMP DP  RH WIND       PRES   REMARKS
GRAND JUNCTION CLEAR     79  39  23 NW3       30.03S
MONTROSE       PTCLDY    75  48  38 CALM      30.13S
EAGLE          PTCLDY    75  30  19 W8        30.19R
RIFLE          CLEAR     79  33  19 W13       30.08S
DELTA          PTCLDY    84  32  15 W3        30.07S
NUCLA          PTCLDY    79  36  21 CALM      30.16S
$$

COZ017>023-064>068-150200-
...SOUTHWEST COLORADO...

CITY           SKY/WX    TMP DP  RH WIND       PRES   REMARKS
DURANGO        CLEAR     77  35  21 W10       30.17S
CORTEZ         CLEAR     78  43  28 SW5       30.12F
PAGOSA SPRINGS NOT AVBL
TELLURIDE      PTCLDY    64  34  32 W8        30.36S
WOLF CREEK PAS MOCLDY    46  32  57 S3        30.57S
$$

COZ009-010-012-014-032>034-037-058>063-150200-
...CENTRAL COLORADO...

CITY           SKY/WX    TMP DP  RH WIND       PRES   REMARKS
ASPEN          PTCLDY    62  40  44 SW8       30.26F
BUENA VISTA    PTCLDY    67  27  22 W8        30.26S
COPPER MTN     PTCLDY    52  30  43 W14G22    30.57F
BERTHOUD PASS  FAIR      41  41 100 NW17G23   30.60S
COTTONWOOD PAS PTCLDY    63  23  22 N5        30.41S
GUNNISON       PTCLDY    70  34  26 CALM      30.27S
KREMMLING      MOCLDY    70  30  23 W8        30.24S
LEADVILLE      PTCLDY    55  32  41 NW7       30.42S
MONARCH PASS   PTCLDY    52  27  37 W21       30.66S
SALIDA         PTCLDY    74  29  18 W6        30.29S
SUNLIGHT       PTCLDY    54  36  50 CALM      30.50S
WILKERSON PASS NOT AVBL
$$

COZ069>075-150200-
...SAN LUIS VALLEY/SANGRE DE CRISTO MOUNTAINS...

CITY           SKY/WX    TMP DP  RH WIND       PRES   REMARKS
ALAMOSA        MOCLDY    70  36  28 NW9       30.23F
LA VETA PASS   NOT AVBL
SAGUACHE       NOT AVBL
$$

COZ035-036-038>040-150200-
...NORTHERN COLORADO FRONT RANGE...

CITY           SKY/WX    TMP DP  RH WIND       PRES   REMARKS
DENVER INTL AP MOCLDY    73  39  29 NW7       30.06S
DMNS CITY PARK NOT AVBL
AURORA         NOT AVBL
FRONT RANGE AP MOCLDY    73  39  29 NW8       30.08S
ERIE MUNI ARPT MOCLDY    71  44  37 W6        30.04R
BOULDER MUN AP MOCLDY    73  41  31 CALM      30.06R
CENTENNIAL     MOCLDY    75  36  24 N7        30.10R
BROOMFIELD     MOCLDY    77  39  25 NW13      30.08S
FORT COLLINS   CLOUDY    72  41  33 N3        30.05S
LONGMONT       CLOUDY    73  44  35 NW5       30.06R
$$

COZ041-046-047-076>085-087-088-150200-
...PIKES PEAK/PALMER DIVIDE AND SOUTHERN FOOTHILLS...

CITY           SKY/WX    TMP DP  RH WIND       PRES   REMARKS
COLO. SPRINGS  PTCLDY    74  29  19 S6        30.12S
A. F. ACADEMY  NOT AVBL
ELLICOTT       NOT AVBL
FALCON         PTCLDY    67  32  26 S6        30.18S
FORT CARSON    NOT AVBL
LIMON          PTCLDY    70  43  37 CALM      30.06S
MONUMENT HILL  MOCLDY    68  34  28 N5        30.18R
TRINIDAD       PTCLDY    76  47  35 S14       30.08S
$$

COZ042>045-048>051-090-091-150200-
...NORTHEAST COLORADO...

CITY           SKY/WX    TMP DP  RH WIND       PRES   REMARKS
GREELEY ARPT   CLOUDY    72  46  40 N12       30.04R
AKRON          PTCLDY    65  48  54 E12       30.02R
BURLINGTON     CLEAR     73  50  44 S9        29.99S
WRAY           LGT RAIN  68  60  75 E9        30.00R
STERLING       PTCLDY    70  57  64 SE3       29.98R
HOLYOKE        MOCLDY    68  59  73 SE9       29.97S
FORT MORGAN    PTCLDY    72  44  36 NW6       30.02R HAZE
$$

COZ086-089-092>099-150200-
...SOUTHEAST COLORADO...

CITY           SKY/WX    TMP DP  RH WIND       PRES   REMARKS
PUEBLO         PTCLDY    82  32  16 SE7       29.99S
LA JUNTA       CLEAR     81  35  19 E8        29.97F
LAMAR          CLEAR     81  49  32 SE13      29.95S
SPRINGFIELD      N/A     74  56  53 S20G28    30.05R
$$



USA.gov is the U.S. government's official web portal to all federal, state and local government web resources and services.